Retour au catalogue

STARLINK-32697

ActifCommunicationsVLEO
NORAD 62436·PAYLOAD·🇺🇸 United States

Lancé Dec 29, 2024 depuis Vandenberg Space Force Base

Loading…

Prochains Passages (prochaines 24 heures)

TLE

FraisSource: CelesTrak SupGP

Époque: Sep 14, 2026, 21:38 UTC

1 62436C 24251E   26257.90187500 -.00017699  00000+0 -52271-3 0  2577
2 62436  53.1582 175.5725 0001238  92.5456 131.2982 15.34411391    13

Suivez STARLINK-32697 en temps réel avec AllMySat

Download on the App Store